Probability
0 0 0 0 0 0 0 0 0 0 0 0 0 0 0 0 1 3 3 2 2 3 6 14 22 22 17 14 14 13 12 14 16 16 14 11 8 5 2 1 1 1 2 3 3 3 3 1 0
0 0 0 0 0 0 0 0 0 0 0 0 0 0 0 0 2 5 6 5 6 6 9 17 24 24 18 13 11 10 10 12 13 14 13 11 8 5 4 3 2 3 3 4 3 3 2 1 1
0 0 0 0 0 0 0 0 0 0 0 0 0 0 0 0 2 6 8 9 10 10 12 20 27 26 20 14 11 9 8 9 10 10 10 8 6 5 4 4 4 4 4 4 3 2 1 1 0
0 0 0 0 0 0 0 0 0 0 0 0 0 0 0 1 3 6 8 10 11 11 13 20 27 27 23 19 15 12 10 8 7 7 6 5 4 3 3 2 2 2 2 2 2 2 1 0 0
0 0 0 0 0 0 0 0 0 0 0 0 0 0 1 3 6 8 9 10 12 12 14 20 26 28 28 25 20 16 11 8 5 4 4 4 3 3 3 2 1 0 1 2 2 2 2 1 0
0 0 0 0 0 0 0 0 0 0 0 0 0 0 1 4 9 12 13 13 14 15 17 20 23 25 27 26 22 18 13 9 6 4 4 4 4 4 3 3 2 2 2 3 3 3 2 1 0
0 0 0 0 0 0 0 0 0 0 0 0 0 0 0 3 9 15 17 16 17 18 18 18 19 20 21 21 19 16 13 9 5 4 4 3 3 3 3 3 3 3 3 3 3 3 2 1 0
0 0 0 0 0 0 0 0 0 0 0 0 0 0 1 3 9 16 19 18 19 19 17 15 13 13 12 12 11 10 8 5 3 2 1 1 1 2 2 3 3 3 3 3 3 3 2 1 0
0 0 0 0 0 0 0 0 0 0 0 0 0 0 2 5 11 16 19 18 17 15 12 9 7 6 5 4 3 3 3 1 1 0 0 0 0 0 1 2 3 2 3 4 3 2 2 1 0
0 0 0 0 0 0 0 0 0 0 0 0 0 1 4 8 11 15 16 16 13 8 4 2 1 1 1 0 0 0 0 0 0 0 0 0 0 0 0 1 2 2 3 5 4 3 3 2 1
0 0 0 0 0 0 0 0 0 0 0 0 1 3 6 9 10 12 13 12 9 5 1 0 0 0 0 0 0 0 0 0 0 0 0 0 0 0 0 0 1 1 2 3 4 3 3 2 1
0 0 0 0 0 0 0 0 0 0 0 0 1 3 5 7 9 10 11 11 8 5 2 0 0 0 0 0 0 0 0 0 0 0 0 0 0 0 0 0 0 0 1 1 1 1 1 1 1
0 0 0 0 0 0 0 0 0 0 0 1 1 2 3 4 7 8 9 9 8 5 2 0 0 0 0 0 0 0 0 0 0 0 0 0 0 0 0 0 0 0 0 0 0 0 0 0 0
0 0 0 0 0 0 0 0 0 0 1 2 1 1 1 1 3 4 5 6 6 5 2 1 1 0 0 0 0 0 0 0 0 0 0 0 0 0 0 0 1 1 1 1 0 0 0 0 0
0 0 0 0 0 0 0 0 0 0 1 2 1 0 0 0 0 1 1 2 4 4 3 3 2 1 0 0 0 0 0 0 0 0 0 0 0 0 0 0 1 2 2 2 1 0 0 0 0
0 0 0 0 0 0 0 0 0 0 1 2 1 0 0 0 0 0 0 1 2 3 3 3 3 2 0 0 0 0 0 0 0 0 0 0 0 0 0 0 0 1 1 2 2 1 0 0 0
0 0 0 0 0 0 0 0 0 0 1 1 0 0 0 0 0 0 0 1 2 3 3 3 3 2 0 0 0 0 0 0 0 0 0 0 0 0 0 0 0 0 0 1 1 1 0 0 0
0 0 0 0 0 0 0 0 0 0 0 0 0 0 0 0 0 0 0 0 1 2 3 3 3 2 0 0 0 0 0 0 0 0 0 0 0 0 0 0 0 0 0 0 0 0 0 0 0
0 0 0 0 0 0 0 0 0 0 0 0 0 0 0 0 0 0 0 0 0 1 2 2 2 1 0 0 0 0 0 0 0 0 0 0 0 0 0 0 0 0 0 0 0 0 0 0 0
0 0 0 0 0 0 0 0 0 0 0 0 0 0 0 0 0 0 0 0 0 0 1 1 1 0 0 0 0 0 0 0 0 0 0 0 0 0 0 0 0 0 0 0 0 0 0 0 0
0 0 0 0 0 0 0 0 0 0 0 0 0 0 0 0 0 0 0 0 0 0 0 0 0 0 0 0 0 0 0 0 0 0 0 0 0 0 0 0 0 0 0 0 0 0 0 0 0
0 0 0 0 0 0 0 0 0 0 0 0 0 0 0 0 0 0 0 0 0 0 0 0 0 0 0 0 0 0 0 0 0 0 0 0 0 0 0 0 0 0 0 0 0 0 0 0 0
0 0 0 0 0 0 0 0 0 0 0 0 0 0 0 0 0 0 0 0 0 0 0 0 0 0 0 0 0 0 0 0 0 0 0 0 0 0 0 0 0 0 0 0 0 0 0 0 0
0 0 0 0 0 0 0 0 0 0 0 0 0 0 0 0 0 0 0 0 0 0 0 0 0 0 0 0 0 0 0 0 0 0 0 0 0 0 0 0 0 0 0 0 0 0 0 0 0
0 0 0 0 0 0 0 0 0 0 0 0 0 0 0 0 0 0 0 0 0 0 0 0 0 0 0 0 0 0 0 0 0 0 0 0 0 0 0 0 0 0 0 0 0 0 0 0 0
0 0 0 0 0 0 0 0 0 0 0 0 0 0 0 0 0 0 0 0 0 0 0 0 0 0 0 0 0 0 0 0 0 0 0 0 0 0 0 0 0 0 0 0 0 0 0 0 0
0 0 0 0 0 0 0 0 0 0 0 0 0 0 0 0 0 0 0 0 0 0 0 0 0 0 0 0 0 0 0 0 0 0 0 0 0 0 0 0 0 0 0 0 0 0 0 0 0
0 0 0 0 0 0 0 0 0 0 0 0 0 0 0 0 0 0 0 0 0 0 0 0 0 0 0 0 0 0 0 0 0 0 0 0 0 0 0 0 0 0 0 0 0 0 0 0 0
0 0 0 0 0 0 0 0 0 0 0 0 0 0 0 0 0 0 0 0 0 0 0 0 0 0 0 0 0 0 0 0 0 0 0 0 0 0 0 0 0 0 0 0 0 0 0 0 0
0 0 0 0 0 0 0 0 0 0 0 0 0 0 0 0 0 0 0 0 0 0 0 0 0 0 0 0 0 0 0 0 0 0 0 0 0 0 0 0 0 0 0 0 0 0 0 0 0
Wind_Speed
1 2 3 4 6 4 4 6 4 1 1 1 3 7 8 5 4 6 3 7 10 9 8 10 13 13 13 13 13 13 13 12 12 12 12 12 11 11 11 11 10 10 10 10 10 10 9 10 9
2 2 4 5 5 2 6 6 5 5 4 4 5 6 7 4 3 7 5 9 11 10 8 9 13 14 14 14 13 13 13 12 12 12 12 11 11 11 11 11 10 10 10 10 9 9 9 9 8
1 1 4 4 4 6 6 5 6 3 1 2 4 5 5 5 4 4 6 11 10 8 7 10 14 14 14 14 13 13 13 12 12 12 12 11 11 11 11 10 10 10 10 10 10 9 9 8 8
2 3 4 3 5 6 6 3 3 3 2 3 6 6 3 1 4 6 11 12 11 8 7 9 14 14 14 13 13 13 13 13 13 12 12 12 11 11 11 10 10 10 10 9 9 9 9 8 8
3 4 3 2 5 5 5 5 2 2 2 2 5 6 3 4 8 12 11 12 11 8 6 9 14 14 14 13 13 13 13 12 12 12 12 11 11 11 10 10 10 10 9 9 9 9 9 9 8
3 4 4 4 5 4 5 5 2 2 2 3 6 6 2 2 8 10 11 11 10 9 7 8 13 14 13 13 13 13 12 12 12 11 11 11 11 10 10 10 9 9 9 9 8 8 8 9 8
4 4 5 5 3 4 5 3 4 5 4 4 7 8 4 3 6 10 10 10 9 8 7 6 6 9 12 13 12 12 12 12 11 11 11 10 10 10 10 9 9 8 8 8 8 8 8 8 8
4 4 3 4 4 5 3 2 2 6 4 3 6 10 8 7 8 11 10 9 8 7 7 6 6 6 5 6 10 11 11 11 11 11 10 10 9 9 9 8 8 8 7 7 7 7 7 8 7
3 3 4 5 5 4 2 1 0 2 6 3 2 5 8 13 12 12 10 7 7 7 5 6 6 5 5 5 7 8 9 9 9 8 9 7 4 3 4 6 8 8 7 7 7 7 7 7 7
4 4 7 4 3 3 1 2 2 3 4 3 4 5 10 13 14 14 13 11 9 8 6 5 6 5 4 4 4 3 4 4 4 3 4 3 3 3 4 7 8 8 8 7 7 7 6 5 3
6 7 4 3 1 1 0 0 1 6 3 5 9 12 13 12 12 12 11 10 10 9 7 6 6 5 5 4 3 2 2 2 3 3 3 3 3 2 3 2 3 4 5 3 4 4 3 2 2
5 5 4 2 1 1 0 0 1 2 4 5 12 17 14 14 13 13 12 10 9 9 8 6 6 5 5 4 3 3 2 2 2 2 3 3 2 2 2 2 2 2 2 2 2 2 2 2 2
6 4 3 3 1 0 0 1 1 2 2 5 9 12 14 13 11 9 10 9 9 9 7 7 7 7 5 4 3 3 2 2 2 2 2 3 3 2 2 1 2 2 1 2 2 2 2 2 2
6 4 3 3 3 2 2 3 1 4 4 7 10 11 11 12 11 9 9 10 10 9 8 7 7 7 6 4 4 3 3 2 2 2 2 3 3 2 2 1 1 1 1 1 1 1 1 1 1
3 2 4 4 4 3 2 4 6 6 6 7 8 10 10 10 10 11 12 11 11 10 9 8 8 7 7 6 4 3 3 3 2 2 2 3 3 2 2 1 1 1 1 1 1 2 2 2 2
3 3 4 5 5 4 6 9 7 5 8 9 8 8 9 9 10 10 10 10 10 10 10 9 8 7 6 5 4 3 3 3 2 2 2 2 2 2 2 1 1 1 1 1 1 1 2 2 2
3 5 6 4 5 5 7 8 6 5 8 9 8 8 8 8 7 8 9 10 11 11 11 9 8 8 7 5 4 3 3 3 2 2 2 2 2 2 2 1 1 1 1 1 2 2 1 2 3
8 6 5 7 5 6 7 8 6 4 7 8 8 7 7 9 9 8 9 9 9 9 10 9 8 7 6 5 4 3 3 2 1 1 2 2 2 2 2 1 1 1 1 2 2 2 2 2 3
6 6 5 6 4 6 8 10 9 6 5 6 7 7 8 9 7 7 8 8 9 8 9 9 9 7 6 5 4 3 2 1 1 1 1 2 2 2 2 1 1 1 1 1 1 2 2 3 2
4 4 4 3 2 4 5 8 7 6 7 9 10 10 9 7 5 6 7 8 9 10 9 9 9 8 7 5 4 3 3 1 1 1 1 1 1 1 1 1 1 1 1 1 2 1 1 2 2
7 7 6 4 1 1 1 5 6 5 5 5 7 8 8 11 11 9 9 8 9 10 10 10 9 8 7 6 4 4 3 2 1 1 0 0 1 1 1 1 0 1 0 1 1 1 1 2 2
8 7 6 5 4 3 3 4 7 5 4 6 7 7 8 9 9 10 10 10 10 10 9 9 9 8 7 7 6 7 4 3 2 1 0 1 0 0 0 0 0 0 0 1 2 1 1 1 2
6 4 5 5 4 1 2 3 8 3 5 8 8 8 7 8 10 11 11 11 10 9 8 8 8 7 6 6 7 6 4 2 1 1 1 0 1 0 0 0 0 1 1 1 2 2 2 1 2
5 5 5 4 3 4 7 6 8 6 8 6 6 6 7 7 7 8 8 8 7 7 7 7 8 6 6 6 6 6 5 4 3 1 1 0 1 1 1 1 1 1 1 2 2 2 2 2 3
6 7 3 1 1 8 4 6 9 6 6 8 8 7 6 7 7 7 8 8 8 8 8 8 8 7 6 6 5 5 5 5 5 3 2 1 1 1 2 1 1 2 2 2 2 2 3 3 3
7 9 9 8 7 4 2 7 7 4 3 3 5 5 6 5 6 7 8 9 9 9 9 8 8 7 6 6 5 4 4 3 3 3 2 2 2 2 2 2 2 2 2 3 2 2 3 3 3
7 6 6 6 2 2 5 5 5 1 0 1 3 4 5 6 6 6 7 8 9 9 9 9 9 7 6 5 4 4 3 3 3 2 2 2 2 2 2 2 2 2 3 3 3 3 4 4 4
6 7 5 5 6 4 4 4 5 4 4 3 3 4 4 4 5 5 6 6 7 7 7 7 7 7 6 5 4 3 3 3 2 2 2 2 2 2 2 2 2 3 3 3 3 3 4 4 4
4 4 5 5 4 6 4 6 4 5 5 5 4 4 5 5 5 5 5 5 6 6 6 6 6 5 5 4 3 3 2 2 2 2 2 2 2 2 2 2 3 3 3 3 3 4 4 5 5
3 6 6 6 5 4 4 5 3 1 1 4 4 3 4 4 4 5 5 6 6 6 5 5 5 5 4 4 3 3 2 1 1 2 2 2 2 2 3 2 3 3 4 3 4 5 5 5 6
Wind_Direction
292 47 77 62 62 63 233 241 230 230 166 142 93 101 107 106 136 150 138 135 131 134 134 128 123 119 116 112 109 105 103 101 100 99 98 96 95 93 91 90 87 83 80 79 76 73 71 67 64
73 72 65 67 102 165 251 243 227 222 185 150 96 89 84 80 83 110 126 137 131 129 129 127 122 120 117 114 111 107 104 102 101 100 98 96 95 92 90 86 84 81 79 77 74 70 70 68 64
86 106 94 94 150 189 223 233 214 222 197 141 88 66 95 119 122 130 142 135 121 120 123 127 121 120 118 115 112 109 106 103 101 100 97 95 92 89 87 85 83 80 77 74 70 67 64 63 61
88 72 68 107 215 223 219 231 187 152 79 67 103 73 63 80 146 134 135 128 119 116 118 124 121 119 117 115 112 109 106 105 102 98 95 92 90 89 86 84 82 79 77 74 70 65 62 60 57
74 95 109 207 235 244 235 236 214 153 125 89 101 98 54 359 111 123 130 128 124 121 118 122 119 118 117 115 112 110 109 107 104 101 97 93 91 89 87 83 81 78 75 73 69 66 64 59 56
85 93 132 212 236 250 250 232 178 153 142 118 107 109 107 105 121 130 130 127 127 124 119 120 118 116 115 115 113 111 110 108 105 102 98 94 91 89 86 83 82 79 75 72 69 66 63 57 54
131 133 179 203 220 242 241 211 171 163 156 166 134 116 135 159 141 131 125 123 121 118 115 109 113 114 114 114 111 110 108 106 103 99 96 92 88 86 85 81 79 76 72 68 66 63 59 54 50
153 136 198 211 202 231 228 170 177 158 163 140 123 137 170 183 143 123 118 117 118 115 115 111 106 103 105 109 109 108 106 103 101 98 93 88 84 82 78 74 72 70 67 64 61 59 54 50 46
130 118 205 209 197 222 226 141 40 116 111 83 95 161 164 145 132 124 121 120 126 125 122 120 115 110 108 109 108 104 102 100 97 95 93 85 67 65 65 62 64 64 62 59 56 53 51 46 41
139 183 215 217 202 208 195 138 152 95 89 81 62 83 123 138 140 141 146 149 149 150 146 137 131 126 118 109 94 88 88 90 87 86 87 80 73 66 64 55 58 55 52 50 48 46 45 41 29
178 199 220 262 266 218 106 49 53 126 154 175 158 147 144 146 147 151 156 157 158 156 152 149 142 133 122 112 108 93 87 85 85 90 90 83 71 62 54 47 38 34 38 31 25 27 23 25 22
195 222 213 249 297 85 161 102 56 164 196 180 163 154 153 157 161 163 162 160 156 154 155 152 145 134 128 121 116 113 105 99 95 94 97 91 79 65 57 51 39 36 29 29 20 18 12 13 7
223 233 226 245 281 216 104 196 156 249 205 138 141 151 161 165 167 165 158 154 153 155 157 155 147 141 135 125 127 118 116 115 113 100 97 104 100 88 69 58 47 35 31 32 19 15 10 6 356
210 223 249 248 243 249 222 260 194 237 157 144 153 166 174 173 169 159 159 161 163 163 160 155 149 146 139 135 132 132 128 120 107 102 107 106 109 105 87 67 50 30 22 21 23 9 2 344 336
174 203 273 246 216 215 155 263 229 211 162 166 175 177 180 184 175 173 173 170 168 165 159 157 152 145 141 137 136 131 132 122 116 113 108 107 108 108 100 76 44 3 7 19 19 8 7 350 339
140 167 230 246 195 190 158 241 247 202 175 189 194 188 186 192 189 184 175 168 167 160 159 161 156 147 143 138 133 129 124 119 121 116 106 107 108 107 94 77 34 360 21 20 7 3 356 338 327
175 196 210 245 203 174 179 234 248 204 182 193 197 195 192 193 195 189 177 171 168 165 161 159 152 150 146 136 127 121 117 116 120 113 108 109 104 103 100 86 26 24 32 14 352 358 341 325 321
192 191 195 210 214 174 199 234 248 227 192 196 197 195 191 193 201 187 177 169 165 162 158 155 151 150 140 127 111 100 94 99 105 115 120 114 104 97 91 78 35 36 37 10 358 340 334 313 308
169 175 199 221 219 179 209 231 241 234 210 204 203 199 197 203 200 179 170 161 154 154 155 157 154 154 147 142 141 138 143 139 119 122 120 113 100 90 85 65 36 34 37 354 347 339 336 330 328
197 194 215 258 238 190 217 246 253 237 219 207 201 202 200 194 177 174 166 161 161 161 161 161 160 159 159 158 152 143 139 140 147 119 87 94 88 82 80 79 47 28 24 1 350 353 337 330 354
219 205 198 201 353 11 133 286 256 252 226 218 211 201 194 186 182 177 169 169 164 165 168 166 165 161 157 146 124 105 78 64 56 51 33 34 78 79 91 99 66 8 33 306 308 304 323 313 322
221 215 192 181 153 239 167 253 267 235 236 223 220 206 197 191 182 177 172 171 174 175 170 162 161 158 154 148 146 148 149 159 190 188 198 325 53 79 63 71 14 311 313 293 290 302 278 272 301
196 176 177 183 167 197 199 204 271 230 228 229 220 209 199 189 180 180 179 177 175 170 164 159 153 152 152 153 154 152 149 157 143 123 122 337 328 321 308 273 289 290 294 287 294 301 288 266 262
145 93 62 55 94 229 210 188 258 224 211 213 216 206 195 185 178 177 174 164 158 155 152 152 151 152 153 152 153 155 155 149 138 146 170 257 307 305 301 306 288 282 288 286 281 279 280 274 271
144 125 95 50 221 240 204 196 244 240 215 201 198 198 191 181 170 163 161 160 156 154 155 155 153 153 153 152 156 162 163 160 166 176 185 201 259 287 282 303 291 290 287 287 287 285 281 274 275
180 155 162 180 202 246 195 220 251 252 231 200 185 175 163 163 166 165 167 164 161 159 156 155 157 154 154 156 162 160 160 163 173 184 188 204 224 243 250 267 279 286 291 298 292 288 281 284 275
158 185 166 135 146 185 238 259 292 275 219 155 148 143 159 164 164 162 160 159 158 158 159 160 156 151 156 159 154 154 159 165 176 186 189 211 232 251 254 265 275 284 289 291 293 290 289 289 278
163 153 126 139 159 210 243 237 229 219 212 193 168 160 154 149 148 149 150 150 151 152 150 148 149 153 155 151 157 160 171 177 175 174 198 223 237 248 254 269 276 284 289 290 290 290 292 295 289
149 156 151 151 168 165 203 251 225 207 200 186 184 165 151 143 145 146 140 135 130 127 133 137 142 138 141 147 147 142 160 165 165 189 214 225 238 247 249 260 272 280 284 286 288 288 290 292 296
172 167 151 164 209 184 174 257 318 160 146 150 156 149 137 133 126 124 125 120 119 124 132 134 137 141 151 150 144 146 149 148 176 218 233 232 240 248 251 261 271 278 285 284 281 286 291 288 292